Tetuan, Morocco

1:05 PM WET on February 10, 2016 (GMT +0000)
Sania Ramel

Weather History for GMTN - September, 2012

Change the Weather History Date:

Monday, September 10, 2012

  Actual Average Record
Temperature  
Mean Temperature 76 °F -  
Max Temperature 88 °F 76 °F 88 °F (2012)
Min Temperature 64 °F 64 °F 64 °F (2003)
Cooling Degree Days 11    
Growing Degree Days 26 (Base 50)    
Moisture  
Dew Point 58 °F    
Average Humidity 54    
Maximum Humidity 78    
Minimum Humidity 23    
Precipitation  
Precipitation 0.00 in - - ()
Sea Level Pressure  
Sea Level Pressure 30.03 in    
Wind  
Wind Speed 8 mph ()    
Max Wind Speed 15 mph    
Max Gust Speed -    
Visibility 4.7 miles    
Events      
Averages and records for this station are not official NWS values.
T = Trace of Precipitation, MM = Missing Value Source: Averaged Metar Reports

Daily Weather History Graph

Daily Weather History Graph

Search for Another Location

Airport or City:

Trip Planner

Search our weather history database for the weather conditions in past years. The results will help you decide how hot, cold, wet, or windy it might be!

Date:

Astronomy

Sep. 10, 2012 Rise Set
Actual Time 7:00 AM WEST 7:35 PM WEST
Civil Twilight 6:34 AM WEST 8:00 PM WEST
Nautical Twilight 6:04 AM WEST 8:31 PM WEST
Astronomical Twilight 5:33 AM WEST 9:01 PM WEST
Moon 1:17 AM WEST 3:46 PM WEST
Length of Visible Light 13h 26m
Length of Day
12h 34m
Waning Crescent, 32% of the Moon is Illuminated
Sep 10
Waning Crescent
Sep 16
New
Sep 22
First Quarter
Sep 30
Full
Oct 8
Last Quarter

Hourly Weather History & Observations

Time (WEST) Temp. Heat Index Dew Point Humidity Pressure Visibility Wind Dir Wind Speed Gust Speed Precip Events Conditions
12:00 AM 69.8 °F - 60.8 °F 73% 30.06 in 3.1 mi West 8.1 mph - N/A   Scattered Clouds
1:00 AM 70 °F - 61 °F 65% 30.07 in 3 mi West 9.2 mph - -   Partly Cloudy
1:00 AM 69.8 °F - 60.8 °F 73% 30.06 in 3.1 mi West 9.2 mph - N/A   Scattered Clouds
2:00 AM 69.8 °F - 62.6 °F 78% 30.04 in - WSW 11.5 mph - N/A   Unknown
3:00 AM 69.8 °F - 60.8 °F 73% 30.04 in 3.1 mi WSW 11.5 mph - N/A   Unknown
4:00 AM 69 °F - 60 °F 66% 30.05 in 3 mi West 9.2 mph - -  
4:00 AM 69.8 °F - 60.8 °F 73% 30.04 in - West 9.2 mph - N/A   Unknown
5:00 AM 68.0 °F - 59.0 °F 73% 30.04 in - WNW 10.4 mph - N/A   Unknown
6:00 AM 68.0 °F - 57.2 °F 68% 30.04 in 3.7 mi West 5.8 mph - N/A   Unknown
7:00 AM 64 °F - 57 °F 71% 30.05 in 5 mi East 4.6 mph - -   Clear
7:00 AM 68.0 °F - 57.2 °F 68% 30.04 in 3.7 mi West 5.8 mph - N/A   Unknown
8:00 AM 71.6 °F - 57.2 °F 60% 30.04 in 5.0 mi West 10.4 mph - N/A   Scattered Clouds
9:00 AM 73.4 °F - 59.0 °F 61% 30.04 in - West 15.0 mph - N/A   Clear
10:00 AM 80 °F - 56 °F 34% 30.06 in 6 mi West 11.5 mph - -   Mostly Cloudy
10:00 AM 80.6 °F 80.8 °F 57.2 °F 45% 30.04 in - West 11.5 mph - N/A   Clear
11:00 AM 80.6 °F 80.8 °F 57.2 °F 45% 30.06 in 6.2 mi WSW 12.7 mph - N/A   Partly Cloudy
1:00 PM 85 °F - 54 °F 24% 30.04 in 6 mi WNW 9.2 mph - -   Scattered Clouds
1:00 PM 84.2 °F 82.8 °F 53.6 °F 35% 30.04 in 6.2 mi WNW 9.2 mph - N/A   Partly Cloudy
3:00 PM 87.8 °F 86.1 °F 55.4 °F 33% 30.01 in 6.2 mi WNW 10.4 mph - N/A   Partly Cloudy
4:00 PM 87 °F - 55 °F 23% 30.00 in 6 mi WNW 11.5 mph - -   Scattered Clouds
4:00 PM 87.8 °F 86.1 °F 55.4 °F 33% 29.98 in 6.2 mi WNW 11.5 mph - N/A   Partly Cloudy
5:00 PM 86.0 °F 84.2 °F 53.6 °F 33% 29.98 in - WNW 6.9 mph - N/A   Clear
6:00 PM 80.6 °F 81.1 °F 59.0 °F 48% 29.98 in - ESE 8.1 mph - N/A   Clear
7:00 PM 78 °F - 58 °F 39% 30.01 in 6 mi East 4.6 mph - -   Clear
7:00 PM 78.8 °F - 59.0 °F 51% 29.98 in - East 4.6 mph - N/A   Clear
8:00 PM 75.2 °F - 55.4 °F 50% 29.98 in - WSW 3.5 mph - N/A   Clear
9:00 PM 71.6 °F - 57.2 °F 60% 30.01 in - WSW 5.8 mph - N/A   Clear
10:00 PM 74 °F - 57 °F 46% 30.05 in 3 mi West 12.7 mph - -   Clear
10:00 PM 75.2 °F - 57.2 °F 53% 30.04 in - West 12.7 mph - N/A   Unknown
11:00 PM 71.6 °F - 60.8 °F 69% 30.04 in - WSW 10.4 mph - N/A   Unknown